DW6963 Weather Reports


time (UTC)temp
C
wind
direction
speed
KPH
gust
KPH
rain 1hr
cm
rain 24hr
cm
rain mn
cm
humidity
%
barometer
mb
20260903042953 24 0 0.0 0.0 0.00 0.00 0.00 86 1016.5
20260903042453 24 0 0.0 0.0 0.00 0.00 0.00 86 1016.5
20260903041953 24 0 0.0 0.0 0.00 0.00 0.00 86 1016.4
20260903041454 24 0 0.0 0.0 0.00 0.00 0.00 86 1016.4
20260903040954 24 0 0.0 0.0 0.00 0.00 0.00 86 1016.4
20260903035957 24 0 0.0 0.0 0.00 0.00 0.00 85 1016.4
20260903035454 24 0 0.0 0.0 0.00 0.00 0.00 85 1016.4
20260903034953 24 0 0.0 0.0 0.00 0.00 0.00 85 1016.5
20260903034454 24 0 0.0 0.0 0.00 0.00 0.00 85 1016.5
20260903033954 24 0 0.0 0.0 0.00 0.00 0.00 85 1016.5
20260903033453 24 0 0.0 0.0 0.00 0.00 0.00 85 1016.5
20260903031954 24 0 0.0 0.0 0.00 0.00 0.00 85 1016.6
20260903031454 25 0 0.0 0.0 0.00 0.00 0.00 84 1016.6
20260903030954 25 0 0.0 0.0 0.00 0.00 0.00 84 1016.6
20260903030454 25 0 0.0 0.0 0.00 0.00 0.00 84 1016.7
20260903025953 25 0 0.0 0.0 0.00 0.00 0.00 84 1016.8
20260903025454 25 0 0.0 0.0 0.00 0.00 0.00 85 1016.8
20260903024954 25 0 0.0 0.0 0.00 0.00 0.00 85 1016.9
20260903023954 25 0 0.0 0.0 0.00 0.00 0.00 85 1017.0
20260903023453 25 0 0.0 0.0 0.00 0.00 0.00 85 1016.9
20260903022954 25 0 0.0 0.0 0.00 0.00 0.00 85 1017.0
20260903022453 25 0 0.0 0.0 0.00 0.00 0.00 85 1017.0
20260903021453 25 0 0.0 0.0 0.00 0.00 0.00 85 1017.0
20260903020954 25 0 0.0 0.0 0.00 0.00 0.00 85 1017.0
20260903015953 25 0 0.0 0.0 0.00 0.00 0.00 85 1017.0
20260903014953 25 0 0.0 0.0 0.00 0.00 0.00 85 1016.9
20260903014454 25 0 0.0 0.0 0.00 0.00 0.00 85 1016.9
20260903013954 25 0 0.0 0.0 0.00 0.00 0.00 85 1017.0
20260903012954 26 0 0.0 0.0 0.00 0.00 0.00 84 1016.8
20260903012454 26 0 0.0 0.0 0.00 0.00 0.00 84 1016.8
20260903011954 26 0 0.0 0.0 0.00 0.00 0.00 84 1016.8
20260903011454 26 0 0.0 0.0 0.00 0.00 0.00 84 1016.7
20260903010954 26 0 0.0 0.0 0.00 0.00 0.00 83 1016.6
20260903010454 26 0 0.0 0.0 0.00 0.00 0.00 83 1016.5
20260903005953 26 0 0.0 0.0 0.00 0.00 0.00 82 1016.5
20260903004954 27 0 0.0 0.0 0.00 0.00 0.00 81 1016.4
20260903003954 27 0 0.0 0.0 0.00 0.00 0.00 79 1016.3
20260903003453 27 0 0.0 0.0 0.00 0.00 0.00 79 1016.2
20260903002954 28 0 0.0 0.0 0.00 0.00 0.00 78 1016.3
20260903002454 28 0 0.0 0.0 0.00 0.00 0.00 77 1016.3
20260903001954 28 0 0.0 0.0 0.00 0.00 0.00 76 1016.2
20260903001454 28 0 0.0 0.0 0.00 0.00 0.00 75 1016.3
20260903000953 29 0 0.0 0.0 0.00 0.00 0.00 74 1016.2
20260903000454 29 0 0.0 0.0 0.00 0.00 0.00 73 1016.2
20260902235954 30 0 0.0 0.0 0.00 0.00 0.00 72 1016.1
20260902235453 30 0 0.0 0.0 0.00 0.00 0.00 72 1016.3
20260902234954 30 0 0.0 0.0 0.00 0.00 0.00 71 1016.3
20260902234454 31 0 0.0 0.0 0.00 0.00 0.00 69 1016.3
20260902233954 31 0 0.0 0.0 0.00 0.00 0.00 68 1016.3
20260902233453 31 0 0.0 0.0 0.00 0.00 0.00 68 1016.3
20260902232954 31 0 0.0 0.0 0.00 0.00 0.00 67 1016.3
20260902232454 32 0 0.0 0.0 0.00 0.00 0.00 67 1016.4
20260902231954 32 0 0.0 0.0 0.00 0.00 0.00 66 1016.3
20260902231454 32 0 0.0 0.0 0.00 0.00 0.00 64 1016.4
20260902230954 32 0 0.0 0.0 0.00 0.00 0.00 64 1016.4
20260902230453 32 0 0.0 0.0 0.00 0.00 0.00 65 1016.3
20260902225954 32 0 0.0 0.0 0.00 0.00 0.00 65 1016.3
20260902224953 32 0 0.0 0.0 0.00 0.00 0.00 62 1016.4
20260902224454 33 0 0.0 0.0 0.00 0.00 0.00 62 1016.5
20260902223954 33 0 0.0 0.0 0.00 0.00 0.00 61 1016.4
20260902222954 33 0 0.0 0.0 0.00 0.00 0.00 61 1016.3
20260902221454 33 0 0.0 0.0 0.00 0.00 0.00 57 1016.3
20260902220954 33 0 0.0 0.0 0.00 0.00 0.00 57 1016.4
20260902220454 33 0 0.0 0.0 0.00 0.00 0.00 58 1016.5
20260902215953 33 0 0.0 0.0 0.00 0.00 0.00 58 1016.5
20260902215454 33 0 0.0 0.0 0.00 0.00 0.00 57 1016.5
20260902214954 33 0 0.0 0.0 0.00 0.00 0.00 56 1016.5
20260902213954 33 0 0.0 0.0 0.00 0.00 0.00 54 1016.5
20260902213454 33 0 0.0 0.0 0.00 0.00 0.00 53 1016.6
20260902212954 33 0 0.0 0.0 0.00 0.00 0.00 55 1016.6
20260902212454 33 0 0.0 0.0 0.00 0.00 0.00 54 1016.5
20260902211954 33 0 0.0 0.0 0.00 0.00 0.00 55 1016.6
20260902211454 33 0 0.0 0.0 0.00 0.00 0.00 56 1016.6
20260902210954 33 0 0.0 0.0 0.00 0.00 0.00 55 1016.7
20260902210454 33 0 0.0 0.0 0.00 0.00 0.00 54 1016.7
20260902205954 33 0 0.0 0.0 0.00 0.00 0.00 52 1016.7
20260902205454 33 0 0.0 0.0 0.00 0.00 0.00 52 1016.8
20260902204954 33 0 0.0 0.0 0.00 0.00 0.00 55 1016.8
20260902204454 33 0 0.0 0.0 0.00 0.00 0.00 54 1016.8
20260902203954 33 0 0.0 0.0 0.00 0.00 0.00 55 1016.9
20260902202954 33 0 0.0 0.0 0.00 0.00 0.00 54 1017.0
20260902201454 33 0 0.0 0.0 0.00 0.00 0.00 55 1017.0
20260902200954 33 0 0.0 0.0 0.00 0.00 0.00 54 1017.0
20260902200454 33 0 0.0 0.0 0.00 0.00 0.00 56 1017.1
20260902195454 33 0 0.0 0.0 0.00 0.00 0.00 55 1017.2
20260902194954 33 0 0.0 0.0 0.00 0.00 0.00 59 1017.3
20260902193954 32 0 0.0 0.0 0.00 0.00 0.00 56 1017.4
20260902193453 33 0 0.0 0.0 0.00 0.00 0.00 55 1017.5
20260902192954 33 0 0.0 0.0 0.00 0.00 0.00 55 1017.5
20260902192454 33 0 0.0 0.0 0.00 0.00 0.00 54 1017.6
20260902191954 33 0 0.0 0.0 0.00 0.00 0.00 56 1017.7
20260902191454 33 0 0.0 0.0 0.00 0.00 0.00 56 1017.7
20260902190954 33 0 0.0 0.0 0.00 0.00 0.00 55 1017.8
20260902190454 33 0 0.0 0.0 0.00 0.00 0.00 55 1017.8
20260902185954 33 0 0.0 0.0 0.00 0.00 0.00 55 1017.8
20260902185454 33 0 0.0 0.0 0.00 0.00 0.00 56 1017.8
20260902183954 32 0 0.0 0.0 0.00 0.00 0.00 58 1017.9
20260902183454 32 0 0.0 0.0 0.00 0.00 0.00 56 1017.9
20260902182954 32 0 0.0 0.0 0.00 0.00 0.00 57 1018.0
20260902182454 32 0 0.0 0.0 0.00 0.00 0.00 58 1018.0
20260902181954 32 0 0.0 0.0 0.00 0.00 0.00 58 1018.1
20260902181454 32 0 0.0 0.0 0.00 0.00 0.00 60 1018.1
20260902180954 32 0 0.0 0.0 0.00 0.00 0.00 61 1018.1
20260902180454 32 0 0.0 0.0 0.00 0.00 0.00 61 1018.2
20260902174954 32 0 0.0 0.0 0.00 0.00 0.00 59 1018.3
20260902174454 32 0 0.0 0.0 0.00 0.00 0.00 59 1018.3
20260902173954 32 0 0.0 0.0 0.00 0.00 0.00 59 1018.5
20260902173454 32 0 0.0 0.0 0.00 0.00 0.00 60 1018.6
20260902172953 32 0 0.0 0.0 0.00 0.00 0.00 60 1018.6
20260902172454 32 0 0.0 0.0 0.00 0.00 0.00 60 1018.6
20260902171954 32 0 0.0 0.0 0.00 0.00 0.00 62 1018.7
20260902171454 32 0 0.0 0.0 0.00 0.00 0.00 60 1018.6
20260902170954 32 0 0.0 0.0 0.00 0.00 0.00 61 1018.7
20260902165954 32 0 0.0 0.0 0.00 0.00 0.00 66 1018.7
20260902165454 31 0 0.0 0.0 0.00 0.00 0.00 65 1018.8
20260902164954 31 0 0.0 0.0 0.00 0.00 0.00 65 1018.8
20260902164454 31 0 0.0 0.0 0.00 0.00 0.00 62 1018.9
20260902163953 31 0 0.0 0.0 0.00 0.00 0.00 65 1018.8
20260902163454 31 0 0.0 0.0 0.00 0.00 0.00 65 1018.9
20260902162954 31 0 0.0 0.0 0.00 0.00 0.00 69 1018.9
20260902162454 31 0 0.0 0.0 0.00 0.00 0.00 67 1018.9
20260902161954 31 0 0.0 0.0 0.00 0.00 0.00 67 1018.9
20260902161454 31 0 0.0 0.0 0.00 0.00 0.00 68 1019.0
20260902160454 31 0 0.0 0.0 0.00 0.00 0.00 68 1019.1
20260902155955 30 0 0.0 0.0 0.00 0.00 0.00 68 1019.0
20260902155454 30 0 0.0 0.0 0.00 0.00 0.00 71 1019.1
20260902154954 30 0 0.0 0.0 0.00 0.00 0.00 69 1019.2
20260902154454 30 0 0.0 0.0 0.00 0.00 0.00 70 1019.1
20260902153454 30 0 0.0 0.0 0.00 0.00 0.00 70 1019.1
20260902152954 30 0 0.0 0.0 0.00 0.00 0.00 70 1019.2
20260902150954 30 0 0.0 0.0 0.00 0.00 0.00 70 1019.2
20260902150454 29 0 0.0 0.0 0.00 0.00 0.00 73 1019.3
20260902145954 29 0 0.0 0.0 0.00 0.00 0.00 71 1019.3
20260902144954 29 0 0.0 0.0 0.00 0.00 0.00 73 1019.3
20260902144454 28 0 0.0 0.0 0.00 0.00 0.00 73 1019.3
20260902143455 28 0 0.0 0.0 0.00 0.00 0.00 75 1019.2
20260902142954 28 0 0.0 0.0 0.00 0.00 0.00 76 1019.2
20260902142454 28 0 0.0 0.0 0.00 0.00 0.00 77 1019.1
20260902141954 27 0 0.0 0.0 0.00 0.00 0.00 77 1019.1
20260902141454 27 0 0.0 0.0 0.00 0.00 0.00 77 1019.1
20260902140454 27 0 0.0 0.0 0.00 0.00 0.00 77 1019.2
20260902135954 27 0 0.0 0.0 0.00 0.00 0.00 77 1019.2
20260902135454 27 0 0.0 0.0 0.00 0.00 0.00 78 1019.2
20260902134954 27 0 0.0 0.0 0.00 0.00 0.00 77 1019.2
20260902134454 26 0 0.0 0.0 0.00 0.00 0.00 78 1019.1
20260902133954 26 0 0.0 0.0 0.00 0.00 0.00 79 1019.1
20260902132954 26 0 0.0 0.0 0.00 0.00 0.00 79 1019.1
20260902132454 26 0 0.0 0.0 0.00 0.00 0.00 80 1019.1
20260902131954 26 0 0.0 0.0 0.00 0.00 0.00 80 1019.1
20260902131454 26 0 0.0 0.0 0.00 0.00 0.00 81 1019.0
20260902130955 25 0 0.0 0.0 0.00 0.00 0.00 81 1019.1
20260902130454 25 0 0.0 0.0 0.00 0.00 0.00 81 1019.1
20260902125954 25 0 0.0 0.0 0.00 0.00 0.00 82 1019.1
20260902125454 25 0 0.0 0.0 0.00 0.00 0.00 83 1019.1
20260902124954 24 0 0.0 0.0 0.00 0.00 0.00 84 1019.0
20260902123954 24 0 0.0 0.0 0.00 0.00 0.00 86 1018.9
20260902123454 23 0 0.0 0.0 0.00 0.00 0.00 87 1018.9
20260902121954 23 0 0.0 0.0 0.00 0.00 0.00 89 1018.8
20260902121454 23 0 0.0 0.0 0.00 0.00 0.00 90 1018.9
20260902120954 22 0 0.0 0.0 0.00 0.00 0.00 90 1018.8
20260902120454 22 0 0.0 0.0 0.00 0.00 0.00 91 1018.8
20260902115954 22 0 0.0 0.0 0.00 0.00 0.00 91 1018.7
20260902115454 22 0 0.0 0.0 0.00 0.00 0.00 91 1018.7
20260902114954 22 0 0.0 0.0 0.00 0.00 0.00 91 1018.7
20260902114454 22 0 0.0 0.0 0.00 0.00 0.00 91 1018.6
20260902113955 21 0 0.0 0.0 0.00 0.00 0.00 91 1018.5
20260902113454 21 0 0.0 0.0 0.00 0.00 0.00 91 1018.5
20260902112954 21 0 0.0 0.0 0.00 0.00 0.00 91 1018.4
20260902112454 21 0 0.0 0.0 0.00 0.00 0.00 91 1018.4
20260902111454 21 0 0.0 0.0 0.00 0.00 0.00 91 1018.4
20260902110954 21 0 0.0 0.0 0.00 0.00 0.00 91 1018.3
20260902110454 21 0 0.0 0.0 0.00 0.00 0.00 91 1018.3
20260902105954 21 0 0.0 0.0 0.00 0.00 0.00 91 1018.3
20260902105454 21 0 0.0 0.0 0.00 0.00 0.00 91 1018.3
20260902104954 21 0 0.0 0.0 0.00 0.00 0.00 90 1018.3
20260902104454 21 0 0.0 0.0 0.00 0.00 0.00 90 1018.3
20260902103954 21 0 0.0 0.0 0.00 0.00 0.00 90 1018.3
20260902103455 21 0 0.0 0.0 0.00 0.00 0.00 90 1018.4
20260902102955 21 0 0.0 0.0 0.00 0.00 0.00 90 1018.3
20260902102454 21 0 0.0 0.0 0.00 0.00 0.00 90 1018.3
20260902101954 21 0 0.0 0.0 0.00 0.00 0.00 90 1018.3
20260902101454 21 0 0.0 0.0 0.00 0.00 0.00 90 1018.2
20260902100954 21 0 0.0 0.0 0.00 0.00 0.00 90 1018.2
20260902100454 21 0 0.0 0.0 0.00 0.00 0.00 90 1018.2
20260902095954 21 0 0.0 0.0 0.00 0.00 0.00 90 1018.2
20260902095454 21 0 0.0 0.0 0.00 0.00 0.00 90 1018.1
20260902094954 21 0 0.0 0.0 0.00 0.00 0.00 90 1018.1
20260902094454 21 0 0.0 0.0 0.00 0.00 0.00 90 1018.1
20260902093954 21 0 0.0 0.0 0.00 0.00 0.00 90 1018.1
20260902093454 21 0 0.0 0.0 0.00 0.00 0.00 90 1018.1
20260902092954 21 0 0.0 0.0 0.00 0.00 0.00 90 1018.0
20260902092454 22 0 0.0 0.0 0.00 0.00 0.00 90 1018.2
20260902091954 22 0 0.0 0.0 0.00 0.00 0.00 90 1018.2
20260902091454 22 0 0.0 0.0 0.00 0.00 0.00 90 1018.1
20260902090955 22 0 0.0 0.0 0.00 0.00 0.00 90 1018.1
20260902090454 22 0 0.0 0.0 0.00 0.00 0.00 90 1018.0
20260902085955 22 0 0.0 0.0 0.00 0.00 0.00 90 1017.9
20260902084954 22 0 0.0 0.0 0.00 0.00 0.00 90 1017.9
20260902084454 22 0 0.0 0.0 0.00 0.00 0.00 90 1017.9
20260902083954 22 0 0.0 0.0 0.00 0.00 0.00 89 1017.7
20260902083454 22 0 0.0 0.0 0.00 0.00 0.00 89 1017.7
20260902082954 22 0 0.0 0.0 0.00 0.00 0.00 89 1017.6
20260902082454 22 0 0.0 0.0 0.00 0.00 0.00 89 1017.6
20260902081954 22 0 0.0 0.0 0.00 0.00 0.00 89 1017.6
20260902081454 22 0 0.0 0.0 0.00 0.00 0.00 89 1017.6
20260902080954 22 0 0.0 0.0 0.00 0.00 0.00 89 1017.6
20260902080454 22 0 0.0 0.0 0.00 0.00 0.00 89 1017.5
20260902075954 22 0 0.0 0.0 0.00 0.00 0.00 89 1017.5
20260902075454 22 0 0.0 0.0 0.00 0.00 0.00 89 1017.4
20260902074454 22 0 0.0 0.0 0.00 0.00 0.00 89 1017.5
20260902073954 22 0 0.0 0.0 0.00 0.00 0.00 89 1017.4
20260902072954 22 0 0.0 0.0 0.00 0.00 0.00 88 1017.4
20260902072454 22 0 0.0 0.0 0.00 0.00 0.00 88 1017.5
20260902071954 22 0 0.0 0.0 0.00 0.00 0.00 88 1017.5
20260902071454 22 0 0.0 0.0 0.00 0.00 0.00 88 1017.4
20260902070954 22 0 0.0 0.0 0.00 0.00 0.00 88 1017.5
20260902065955 22 0 0.0 0.0 0.00 0.00 0.00 88 1017.5
20260902065455 22 0 0.0 0.0 0.00 0.00 0.00 88 1017.4
20260902064954 22 0 0.0 0.0 0.00 0.00 0.00 87 1017.4
20260902064454 22 0 0.0 0.0 0.00 0.00 0.00 87 1017.4
20260902063954 22 0 0.0 0.0 0.00 0.00 0.00 87 1017.4
20260902063454 22 0 0.0 0.0 0.00 0.00 0.00 87 1017.4
20260902062954 22 0 0.0 0.0 0.00 0.00 0.00 87 1017.4
20260902062454 23 0 0.0 0.0 0.00 0.00 0.00 87 1017.5
20260902061954 23 0 0.0 0.0 0.00 0.00 0.00 87 1017.4
20260902061454 23 0 0.0 0.0 0.00 0.00 0.00 87 1017.4
20260902060954 23 0 0.0 0.0 0.00 0.00 0.00 87 1017.5
20260902055954 22 0 0.0 0.0 0.00 0.00 0.00 88 1017.5
20260902055454 22 0 0.0 0.0 0.00 0.00 0.00 88 1017.5
20260902054954 22 0 0.0 0.0 0.00 0.00 0.00 88 1017.6
20260902054454 22 0 0.0 0.0 0.00 0.00 0.00 87 1017.6
20260902053954 22 0 0.0 0.0 0.00 0.00 0.00 88 1017.6
20260902053454 23 0 0.0 0.0 0.00 0.00 0.00 87 1017.5
20260902052954 23 0 0.0 0.0 0.00 0.00 0.00 87 1017.6
20260902052454 23 0 0.0 0.0 0.00 0.00 0.00 87 1017.6
20260902051954 23 0 0.0 0.0 0.00 0.00 0.00 86 1017.6
20260902051454 23 0 0.0 0.0 0.00 0.00 0.00 86 1017.6
20260902050954 23 0 0.0 0.0 0.00 0.00 0.00 86 1017.6
20260902045454 23 0 0.0 0.0 0.00 0.00 0.00 86 1017.6
20260902044954 23 0 0.0 0.0 0.00 0.00 0.00 85 1017.6
20260902044454 23 0 0.0 0.0 0.00 0.00 0.00 85 1017.6
20260902043954 23 0 0.0 0.0 0.00 0.00 0.00 85 1017.5